EW5697 Weather Reports


Display with metric or nautical units.
time (UTC)temp
F
wind
direction
speed
MPH
gust
MPH
rain 1hr
in
rain 24hr
in
rain mn
in
humidity
%
barometer
mb
20260509061526 54 6 0.0 0.0 0.00 0.00 0.00 52 1021.3
20260509060025 55 6 0.0 0.0 0.00 0.00 0.00 55 1021.3
20260509054531 55 50 0.0 0.0 0.00 0.00 0.00 54 1021.1
20260509053024 55 50 0.0 0.0 0.00 0.00 0.00 51 1021.1
20260509051524 56 49 0.0 0.0 0.00 0.00 0.00 52 1021.0
20260509050033 56 50 0.0 0.0 0.00 0.00 0.00 51 1020.8
20260509044522 57 50 0.0 0.0 0.00 0.00 0.00 50 1020.7
20260509043037 59 51 0.0 0.0 0.00 0.00 0.00 46 1020.7
20260509041523 60 51 0.0 0.0 0.00 0.00 0.00 46 1020.5
20260509040020 62 51 0.0 0.0 0.00 0.00 0.00 44 1020.2
20260509034520 64 51 0.0 0.0 0.00 0.00 0.00 42 1019.9
20260509033022 65 51 0.0 0.0 0.00 0.00 0.00 39 1019.8
20260509031521 67 58 0.0 0.0 0.00 0.00 0.00 36 1019.5
20260509030020 69 349 0.0 0.0 0.00 0.00 0.00 33 1019.3
20260509024518 71 8 0.0 0.0 0.00 0.00 0.00 33 1019.0
20260509023023 73 9 0.0 0.0 0.00 0.00 0.00 29 1018.7
20260509021521 74 34 0.0 0.0 0.00 0.00 0.00 26 1018.7
20260509020017 75 299 0.0 0.0 0.00 0.00 0.00 24 1018.6
20260509014517 76 76 0.0 0.0 0.00 0.00 0.00 21 1018.6
20260509013037 77 318 0.0 0.0 0.00 0.00 0.00 22 1018.6
20260509011514 77 65 0.0 0.0 0.00 0.00 0.00 22 1018.6
20260509010022 78 292 0.0 0.0 0.00 0.00 0.00 23 1018.6
20260509004531 79 56 0.0 0.0 0.00 0.00 0.00 23 1018.7
20260509003012 79 35 0.0 0.0 0.00 0.00 0.00 23 1018.7
20260509001510 79 300 0.0 0.0 0.00 0.00 0.00 22 1018.7
20260509000009 79 87 0.0 0.0 0.00 0.00 0.00 25 1018.7
20260508234508 80 93 0.0 0.0 0.00 0.00 0.00 23 1018.8
20260508233006 80 314 0.0 1.0 0.00 0.00 0.00 25 1018.8
20260508231502 80 47 0.0 0.0 0.00 0.00 0.00 25 1018.8
20260508224559 79 291 0.0 0.0 0.00 0.00 0.00 27 1019.1
20260508223059 78 71 0.0 0.0 0.00 0.00 0.00 25 1019.2
20260508221558 79 354 0.0 0.0 0.00 0.00 0.00 26 1019.4
20260508220059 79 301 0.0 0.0 0.00 0.00 0.00 26 1019.5
20260508214554 78 330 0.0 0.0 0.00 0.00 0.00 29 1019.5
20260508213052 78 39 0.0 0.0 0.00 0.00 0.00 30 1019.6
20260508211549 78 345 0.0 0.0 0.00 0.00 0.00 31 1019.8
20260508210104 77 314 0.0 0.0 0.00 0.00 0.00 30 1019.9
20260508204544 76 31 0.0 0.0 0.00 0.00 0.00 32 1020.0
20260508203043 75 15 0.0 0.0 0.00 0.00 0.00 32 1020.0
20260508201539 74 140 0.0 0.0 0.00 0.00 0.00 35 1020.2
20260508200045 73 306 0.0 0.0 0.00 0.00 0.00 34 1020.3
20260508194534 72 314 0.0 0.0 0.00 0.00 0.00 38 1020.5
20260508193031 71 301 0.0 0.0 0.00 0.00 0.00 37 1020.7
20260508191530 71 20 0.0 0.0 0.00 0.00 0.00 38 1020.7
20260508190025 69 296 0.0 0.0 0.00 0.00 0.00 43 1020.7
20260508184542 68 312 0.0 0.0 0.00 0.00 0.00 47 1020.9
20260508183016 65 16 0.0 0.0 0.00 0.00 0.00 49 1020.9
20260508181527 64 56 0.0 0.0 0.00 0.00 0.00 51 1020.9
20260508180008 63 25 0.0 0.0 0.00 0.00 0.00 56 1020.9
20260508174510 63 312 0.0 0.0 0.00 0.00 0.00 61 1020.8
20260508173003 61 312 0.0 0.0 0.00 0.00 0.00 64 1020.9
20260508171559 60 318 0.0 0.0 0.00 0.00 0.00 64 1021.1
20260508170058 59 335 0.0 0.0 0.00 0.00 0.00 67 1021.1
20260508164602 58 333 0.0 0.0 0.00 0.00 0.00 71 1021.1
20260508163051 57 8 0.0 0.0 0.00 0.00 0.00 75 1021.1
20260508161551 56 212 0.0 0.0 0.00 0.00 0.00 79 1021.0
20260508160048 55 212 0.0 0.0 0.00 0.00 0.00 83 1021.0
20260508154544 54 212 0.0 0.0 0.00 0.00 0.00 86 1020.8
20260508153042 52 212 0.0 0.0 0.00 0.00 0.00 90 1020.6
20260508151541 52 212 0.0 0.0 0.00 0.00 0.00 91 1020.5
20260508150042 52 212 0.0 0.0 0.00 0.00 0.00 91 1020.5
20260508144546 51 212 0.0 0.0 0.00 0.00 0.00 91 1020.5
20260508143035 52 212 0.0 0.0 0.00 0.00 0.00 90 1020.4
20260508141534 52 212 0.0 0.0 0.00 0.00 0.00 91 1020.4
20260508140031 52 212 0.0 0.0 0.00 0.00 0.00 91 1020.1
20260508134537 52 212 0.0 0.0 0.00 0.00 0.00 90 1019.8
20260508133034 53 212 0.0 0.0 0.00 0.00 0.00 91 1019.7
20260508131525 53 212 0.0 0.0 0.00 0.00 0.00 90 1019.4
20260508130023 53 212 0.0 0.0 0.00 0.00 0.00 90 1019.3
20260508124521 53 212 0.0 0.0 0.00 0.00 0.00 90 1019.1
20260508123021 53 212 0.0 0.0 0.00 0.00 0.00 90 1019.0
20260508121523 54 212 0.0 0.0 0.00 0.00 0.00 90 1019.0
20260508120017 54 212 0.0 0.0 0.00 0.00 0.00 89 1019.0
20260508114516 55 212 0.0 0.0 0.00 0.00 0.00 90 1019.0
20260508113015 55 173 0.0 0.0 0.00 0.00 0.00 89 1018.9
20260508111514 55 174 0.0 0.0 0.00 0.00 0.00 89 1018.9
20260508110025 55 180 0.0 0.0 0.00 0.00 0.00 89 1019.0
20260508104510 56 202 0.0 0.0 0.00 0.00 0.00 88 1019.0
20260508103009 56 202 0.0 0.0 0.00 0.00 0.00 88 1019.0
20260508101507 56 202 0.0 0.0 0.00 0.00 0.00 88 1019.0
20260508100006 57 207 0.0 0.0 0.00 0.00 0.00 88 1019.1
20260508094505 57 218 0.0 0.0 0.00 0.00 0.00 87 1019.2
20260508093003 57 176 0.0 0.0 0.00 0.00 0.00 87 1019.1
20260508091502 57 113 0.0 0.0 0.00 0.00 0.00 88 1019.0
20260508090113 57 202 0.0 0.0 0.00 0.00 0.00 87 1019.0
20260508084559 58 183 0.0 1.0 0.00 0.00 0.00 87 1018.9
20260508083058 58 136 0.0 0.0 0.00 0.00 0.00 86 1019.0
20260508081604 58 143 0.0 0.0 0.00 0.00 0.00 86 1019.1
20260508080055 58 218 0.0 0.0 0.00 0.00 0.00 86 1019.2
20260508074555 59 186 0.0 0.0 0.00 0.00 0.00 85 1019.3
20260508073103 59 175 0.0 0.0 0.00 0.00 0.00 85 1019.2
20260508071600 59 212 0.0 0.0 0.00 0.00 0.00 85 1019.3
20260508070049 59 193 0.0 0.0 0.00 0.00 0.00 84 1019.3
20260508064547 59 212 0.0 0.0 0.00 0.00 0.00 84 1019.3
20260508063047 59 197 0.0 0.0 0.00 0.00 0.00 83 1019.2